Tracking 28920 objects as of 26-May-2024
HD Live streaming from Space Station
objects crossing your sky now

STARLINK-30122

Track STARLINK-30122 now!
10-day predictions
STARLINK-30122 is classified as:


NORAD ID: 56688
Int'l Code: 2023-067A
Perigee: 565.2 km
Apogee: 567.2 km
Inclination: 43.0 °
Period: 95.8 minutes
Semi major axis: 6937 km
RCS: Unknown
Launch date: May 19, 2023
Source: United States (US)
Launch site: AIR FORCE EASTERN TEST RANGE (AFETR)
Your satellite tracking list
Your tracking list is empty




NASA's NSSDC Master Catalog

Two Line Element Set (TLE):
1 56688U 23067A   24147.54217845  .00007521  00000-0  57106-3 0  9992
2 56688  43.0013 218.5752 0001417 270.1103  89.9577 15.02546233 57629
Source of the keplerian elements: AFSPC